Temperature
27 28 28 27 27 27 27 27 27 27 26 26 25 24 23 22 22 21 21 20 19 18 17 17 16 16 16 16 16 16 16 15 15 15 15 15 15 15 14 14 14 14 14 14
28 27 27 27 27 27 27 27 27 26 26 25 25 24 23 22 22 21 20 20 19 19 18 17 16 16 16 16 16 16 15 15 15 15 15 15 14 14 14 14 14 14 14 14
27 27 27 27 27 26 27 26 26 26 26 25 25 24 23 23 22 21 20 19 19 18 18 17 16 16 15 15 15 15 15 15 14 14 14 14 14 14 14 14 14 13 13 13
27 27 26 27 26 26 26 26 26 25 25 26 25 25 23 23 22 21 20 19 18 18 17 17 16 16 15 15 15 14 14 14 14 14 14 14 14 14 14 13 13 13 13 13
26 26 26 26 26 25 26 26 26 25 26 26 26 25 24 23 22 21 20 19 18 17 17 17 16 16 15 15 14 14 14 14 14 13 13 13 13 13 13 13 13 13 13 13
26 26 26 25 25 25 25 26 26 25 26 25 25 24 23 22 21 21 20 18 18 17 17 16 16 15 15 15 14 14 14 13 13 13 13 13 13 13 13 13 13 13 13 13
26 26 25 25 25 25 25 25 25 25 25 25 24 23 22 21 21 20 19 18 17 17 16 16 16 15 15 14 14 14 13 13 13 13 13 13 13 13 13 12 12 12 13 13
25 25 25 25 24 24 25 25 23 23 24 24 24 23 22 21 20 19 18 18 17 17 16 16 16 15 15 14 14 13 13 13 13 13 12 13 13 13 13 12 12 12 12 12
24 24 25 24 24 25 24 25 24 23 24 23 24 23 21 20 20 19 18 18 17 16 16 16 15 15 14 14 13 13 13 12 12 12 12 12 12 12 12 12 12 12 12 12
24 23 24 24 25 24 24 24 24 23 22 22 23 23 21 20 19 19 18 18 17 16 16 15 15 14 14 14 13 13 12 12 12 12 12 12 12 12 12 12 12 11 11 11
23 23 24 24 24 24 24 23 23 23 23 22 22 22 20 19 19 19 18 17 17 16 16 15 15 14 14 13 13 13 12 12 12 12 12 12 12 12 12 12 12 11 11 11
22 23 23 23 23 23 23 23 22 22 22 22 21 21 20 19 19 18 18 17 16 16 16 15 15 14 14 13 13 13 12 12 12 12 12 12 11 11 12 12 12 12 12 12
22 22 22 23 23 23 22 22 22 22 21 22 21 20 20 19 18 17 17 16 16 16 15 15 14 14 13 13 13 13 12 12 12 12 12 11 12 12 11 11 11 11 11 11
21 22 22 22 22 22 22 22 22 22 22 21 21 20 19 19 18 17 16 16 16 15 15 15 14 13 13 13 12 12 12 12 12 12 12 11 11 11 11 11 11 11 11 11
21 21 22 22 22 22 21 21 21 21 21 20 20 19 19 18 18 17 16 16 15 15 15 14 14 13 13 12 12 12 12 12 11 12 12 11 11 11 11 11 11 11 11 11
21 21 21 21 22 22 21 21 21 21 20 20 20 19 19 18 17 16 16 16 15 15 14 14 13 13 12 12 12 12 12 11 11 12 12 11 11 11 11 11 11 11 11 11
21 20 21 21 22 21 20 20 20 20 20 20 19 19 19 18 17 16 16 15 15 14 14 13 13 12 12 12 12 12 11 11 11 12 12 11 11 11 11 11 11 11 11 11
20 20 21 21 21 20 20 21 20 20 20 19 19 19 18 17 16 16 15 15 14 14 13 13 13 12 12 12 12 12 12 11 12 12 12 11 11 11 11 11 11 11 11 11
19 20 21 21 21 21 20 20 20 19 19 19 19 18 18 17 17 17 15 14 13 13 13 12 12 12 12 12 12 12 12 12 12 12 12 11 11 11 11 11 11 11 11 11
19 19 20 20 20 20 20 20 19 19 19 18 18 17 17 17 17 17 14 13 13 13 12 12 12 12 12 12 12 12 12 12 12 12 11 11 11 11 11 11 11 11 11 11
19 19 20 20 20 20 19 18 19 18 18 17 17 17 16 16 16 15 14 13 13 12 12 12 12 12 12 12 12 12 12 12 11 11 11 11 11 11 11 11 11 11 11 11
20 20 20 20 19 19 18 18 18 17 17 16 16 16 15 15 14 14 13 13 13 12 12 12 12 12 12 12 12 12 11 11 11 11 11 11 11 11 11 11 11 11 11 11
19 19 20 20 19 18 17 17 17 16 16 16 15 15 15 14 14 14 13 13 12 12 12 12 12 12 12 12 12 11 11 11 11 11 11 11 11 11 11 11 11 11 11 12
19 18 18 18 19 18 17 17 16 16 15 15 15 14 14 14 14 14 13 13 12 12 12 12 12 12 12 12 12 11 11 11 11 11 11 11 11 11 11 11 11 11 12 11
18 18 18 18 18 18 17 16 16 15 15 15 14 14 14 14 14 13 13 12 12 12 12 12 12 12 12 12 12 12 11 11 11 11 11 11 12 11 11 11 11 11 11 11
18 18 17 18 17 17 17 16 15 15 15 14 14 14 14 14 13 13 13 12 12 12 12 12 12 12 12 12 12 12 11 11 11 11 11 12 12 12 12 12 11 11 11 11
Wind_Speed
3 3 2 4 5 6 6 6 5 1 1 1 2 2 2 2 2 3 4 4 4 5 6 6 6 6 5 4 2 2 1 1 0 1 1 2 2 3 3 2 3 4 4 4
3 1 3 3 2 4 5 6 4 0 0 2 3 2 2 2 2 3 3 3 3 4 4 5 5 6 5 4 2 2 1 1 1 1 2 2 3 3 3 2 2 3 4 4
2 4 2 2 2 3 4 5 5 5 3 5 5 5 4 4 3 3 3 3 3 3 3 4 5 5 5 5 4 3 2 2 2 3 2 2 3 3 2 3 2 3 4 3
2 2 2 3 3 6 5 4 6 6 8 5 6 6 4 3 2 2 3 3 3 3 3 4 5 5 5 5 4 3 3 3 3 4 4 4 4 3 3 3 2 3 3 3
1 3 4 4 6 6 5 6 7 8 9 8 6 7 2 2 1 2 3 3 3 4 4 4 4 4 5 5 4 3 3 4 4 4 5 5 4 3 3 3 2 3 2 3
2 1 4 5 5 3 4 6 6 8 8 6 3 6 1 2 4 4 4 3 4 4 4 4 4 4 5 5 5 4 4 4 4 5 5 4 4 4 3 3 3 3 2 3
1 3 3 4 4 1 4 7 4 4 4 2 2 4 2 5 4 4 5 3 3 3 4 4 4 4 5 6 6 6 5 5 5 4 4 4 4 4 3 4 3 3 3 3
3 1 4 5 5 5 4 6 5 5 6 5 2 2 3 4 4 4 4 3 2 4 4 5 5 5 5 6 6 6 6 5 4 4 3 3 4 3 3 3 3 3 3 4
4 2 3 4 4 5 4 4 5 6 8 7 2 0 3 3 5 6 5 4 3 5 5 6 5 5 5 5 5 5 6 5 5 4 4 3 4 3 3 3 3 3 3 4
4 4 2 2 2 2 4 4 4 5 5 6 4 2 3 5 7 7 6 5 4 5 6 6 5 5 5 5 5 4 5 5 4 4 4 3 3 3 2 3 3 3 4 4
4 4 3 2 3 5 3 3 4 5 5 5 6 3 5 6 6 6 6 6 6 6 6 6 5 5 5 5 5 5 5 5 4 4 4 4 4 3 3 2 3 3 3 4
3 4 4 2 2 2 3 5 5 5 5 4 5 2 6 6 7 6 7 6 6 6 7 6 6 5 5 5 5 5 5 5 4 4 4 4 4 3 3 3 3 4 4 4
3 3 4 3 4 2 2 4 4 5 5 5 5 2 6 7 7 7 7 7 6 6 6 6 6 6 5 6 5 5 5 5 4 4 4 4 3 3 3 3 4 4 5 4
3 2 3 4 4 4 4 5 5 5 4 5 5 6 7 9 8 7 7 7 7 6 6 6 6 6 6 6 5 5 5 5 5 5 4 4 3 3 3 3 4 4 4 4
3 2 1 1 1 2 3 5 5 4 5 5 7 7 8 9 8 8 7 6 7 7 7 7 6 6 6 6 6 5 5 5 5 5 4 4 3 3 4 4 4 4 4 4
2 2 3 3 3 1 3 4 4 4 4 5 6 6 7 6 6 7 7 6 7 7 8 8 7 6 6 6 6 6 5 5 5 4 4 4 4 4 4 4 4 4 4 4
2 3 4 4 3 5 2 3 3 3 4 5 6 7 7 7 8 8 7 7 7 8 8 8 8 7 6 6 6 6 5 5 5 4 4 4 4 4 4 4 4 4 4 4
3 5 4 4 4 3 3 4 3 4 3 4 5 7 7 8 8 6 6 7 7 8 8 8 7 7 7 6 6 5 5 4 5 4 4 4 4 4 4 4 4 4 4 4
3 4 4 4 4 2 2 2 4 5 4 4 5 7 8 8 7 4 5 7 8 8 7 7 7 7 6 6 6 6 5 4 4 4 4 4 4 4 4 4 4 4 4 4
2 4 5 4 5 3 2 4 5 5 3 4 7 8 9 9 8 6 6 7 7 7 6 6 6 6 5 6 5 5 5 4 5 5 4 5 4 4 4 4 4 4 3 3
3 4 5 6 5 1 4 3 3 3 5 7 8 9 9 8 8 7 7 6 6 6 6 6 6 6 5 5 5 5 5 5 5 5 4 4 4 3 3 3 3 3 3 3
4 3 4 4 4 1 4 2 3 5 6 7 9 9 9 9 8 7 6 6 6 6 6 6 6 5 5 4 4 4 4 4 4 4 4 4 3 3 3 3 3 2 3 3
3 3 4 3 2 3 0 3 4 5 7 8 8 9 9 8 8 7 6 6 6 6 6 6 6 5 4 4 3 4 4 4 4 4 3 3 3 2 2 2 2 2 2 3
3 3 4 5 4 3 4 4 5 6 7 8 8 8 8 8 8 7 6 6 6 6 5 5 6 5 5 4 3 3 3 3 3 3 3 2 2 2 2 2 3 3 3 4
5 4 5 7 6 5 5 5 7 7 8 8 8 8 8 8 8 7 6 6 6 6 5 5 5 5 5 4 3 3 2 2 3 3 3 3 2 1 2 2 3 3 4 4
6 6 7 6 5 6 7 7 8 8 9 8 8 8 8 7 7 7 6 5 5 5 4 5 5 5 5 4 3 2 2 2 3 3 3 3 2 2 1 1 1 2 1 1
Wind_Direction
215 245 319 344 319 310 297 288 285 319 107 228 183 143 126 129 116 97 90 80 68 63 63 53 38 30 38 40 34 42 39 44 297 269 271 273 272 273 268 271 285 276 278 273
212 86 18 332 302 278 276 281 291 35 156 258 196 165 140 125 104 86 83 70 50 49 51 38 27 22 21 23 17 24 34 338 290 304 282 277 285 275 273 287 288 287 285 278
352 35 5 299 314 296 286 296 306 297 265 215 218 203 165 141 113 83 64 47 32 30 20 14 12 12 11 11 2 6 354 320 311 300 292 303 287 280 282 291 286 291 286 279
34 34 308 307 339 318 302 327 298 274 263 246 236 267 165 170 145 58 18 16 11 5 5 7 4 2 0 357 358 350 344 330 316 301 303 297 291 287 292 293 294 288 285 291
34 9 340 334 342 321 321 313 284 271 264 266 244 272 160 150 352 3 351 345 2 360 352 359 355 355 358 356 352 344 335 318 308 297 291 288 289 291 298 296 290 287 296 291
59 39 1 350 330 313 310 289 253 247 253 256 287 284 313 45 344 342 347 350 349 346 342 341 346 353 357 352 346 338 330 316 308 297 293 288 290 291 293 292 291 285 283 283
100 100 53 354 324 323 316 307 279 257 252 291 15 289 16 40 12 350 340 339 333 325 331 327 334 345 348 347 344 337 332 321 315 304 294 291 292 283 280 284 288 294 296 295
320 32 42 12 347 325 327 317 320 305 308 314 292 298 61 51 27 15 1 357 353 334 339 335 336 340 338 339 340 337 328 323 319 314 310 302 294 287 290 291 293 293 297 306
339 344 44 17 354 325 322 332 328 286 285 286 292 120 118 53 18 16 10 6 357 346 343 337 336 333 332 333 333 332 332 330 326 322 321 303 293 292 297 294 290 295 299 296
331 299 335 346 269 50 347 332 294 292 305 299 300 324 8 14 2 1 359 354 344 340 338 337 335 335 332 327 326 327 328 330 328 326 321 321 304 290 289 301 322 313 306 305
325 293 301 296 349 353 350 346 326 303 300 300 310 11 41 10 359 354 351 349 344 341 336 333 334 335 330 329 327 331 329 325 323 324 326 320 309 297 290 296 308 307 303 301
341 298 294 320 63 18 9 354 336 315 312 291 296 21 56 17 6 355 352 351 344 337 334 337 345 338 334 336 335 332 328 329 322 321 320 315 307 302 298 303 309 310 310 307
330 290 276 200 163 100 15 5 341 312 296 299 301 17 45 10 359 353 351 350 344 341 339 345 349 344 341 340 337 333 331 330 323 319 314 311 305 301 303 306 307 308 308 310
294 298 310 328 350 351 344 351 345 317 306 317 330 335 351 352 349 349 348 348 345 346 345 349 349 346 344 344 339 335 335 333 325 317 311 311 304 298 303 308 307 306 310 312
297 267 272 294 321 343 346 345 348 348 333 324 332 335 345 349 343 341 340 342 343 345 349 347 345 345 342 343 340 337 335 336 327 320 319 325 318 313 312 314 312 313 314 312
301 274 253 237 231 285 328 338 342 346 339 329 324 338 1 349 342 339 340 343 340 343 347 345 344 343 341 340 335 333 333 331 324 326 334 338 329 322 315 312 309 313 325 328
266 258 268 262 251 266 277 352 346 342 346 332 331 347 351 346 344 338 334 338 342 341 343 343 341 338 336 332 330 328 330 329 325 329 337 341 338 334 332 329 329 335 340 338
267 263 267 283 267 255 82 49 346 318 335 345 337 342 343 341 332 325 333 335 337 335 336 338 336 335 331 330 328 323 323 321 322 327 336 340 334 333 336 336 342 348 349 344
252 255 268 273 271 249 152 15 334 306 305 8 346 338 335 333 314 324 354 339 331 331 330 332 329 329 329 332 327 323 319 320 328 335 341 342 337 338 344 353 357 359 355 352
197 243 259 264 279 285 57 31 333 287 260 27 342 328 327 322 317 342 346 329 327 328 327 326 326 330 332 334 331 328 329 332 336 342 348 346 346 347 350 356 354 353 349 350
216 228 249 263 267 270 55 14 303 286 353 346 325 320 316 316 322 325 321 317 323 323 323 324 328 331 330 328 327 326 333 340 345 347 353 357 358 355 354 355 347 340 340 353
269 262 249 260 261 275 68 353 330 335 334 321 318 315 312 310 312 311 311 315 318 319 320 323 326 326 326 327 328 329 336 342 347 353 359 359 357 351 4 357 346 344 338 338
256 291 298 288 320 52 1 312 323 321 317 318 317 314 310 304 305 306 307 312 315 317 317 316 317 318 325 327 325 325 331 336 347 355 356 356 355 352 354 344 341 336 332 342
242 266 263 266 267 283 287 298 305 309 311 312 311 308 307 304 304 302 301 303 306 309 308 309 311 315 321 323 321 320 326 335 342 344 342 338 335 335 354 335 341 348 349 349
275 251 254 259 277 285 277 295 305 307 310 309 310 308 306 303 299 298 296 297 299 301 302 302 305 309 314 320 321 323 327 331 331 328 327 324 318 334 340 352 350 345 6 2
247 248 256 274 292 290 295 304 303 301 304 306 307 307 306 302 300 296 292 292 294 295 293 296 303 307 312 315 314 318 312 312 309 307 312 315 319 329 319 327 360 57 23 72
Height
1502 1498 1497 1497 1496 1495 1494 1494 1494 1494 1495 1498 1500 1503 1506 1509 1509 1509 1510 1512 1512 1513 1513 1512 1510 1509 1508 1507 1506 1506 1505 1505 1504 1504 1503 1503 1503 1502 1502 1501 1499 1499 1498 1497
1498 1499 1499 1498 1497 1496 1494 1495 1493 1495 1497 1498 1500 1502 1504 1507 1508 1510 1511 1512 1512 1513 1513 1512 1511 1510 1508 1507 1506 1505 1504 1504 1503 1502 1502 1501 1501 1500 1499 1498 1497 1496 1495 1494
1498 1501 1501 1499 1498 1498 1495 1495 1495 1497 1496 1496 1499 1501 1502 1505 1508 1510 1511 1512 1512 1512 1512 1512 1511 1510 1508 1507 1506 1505 1503 1502 1502 1501 1500 1500 1499 1498 1497 1496 1495 1493 1492 1492
1499 1501 1501 1499 1498 1498 1497 1494 1495 1496 1497 1493 1496 1499 1499 1501 1505 1509 1510 1511 1512 1512 1512 1512 1511 1509 1508 1506 1505 1503 1502 1501 1500 1499 1498 1498 1497 1496 1495 1494 1493 1492 1491 1490
1501 1502 1501 1501 1501 1499 1497 1495 1494 1493 1492 1492 1490 1495 1496 1499 1504 1506 1509 1511 1511 1511 1511 1511 1510 1509 1507 1506 1504 1502 1501 1499 1498 1497 1496 1495 1495 1494 1493 1492 1491 1490 1489 1488
1502 1504 1503 1503 1501 1500 1498 1494 1491 1490 1487 1497 1493 1498 1499 1500 1505 1506 1509 1510 1511 1511 1510 1510 1509 1508 1506 1505 1503 1501 1499 1498 1496 1495 1494 1493 1493 1492 1491 1489 1489 1488 1487 1487
1502 1502 1504 1504 1501 1499 1498 1498 1500 1500 1498 1497 1494 1499 1504 1504 1505 1508 1509 1510 1510 1510 1509 1509 1508 1507 1505 1504 1502 1500 1498 1496 1495 1493 1492 1491 1490 1489 1488 1488 1487 1486 1485 1485
1506 1506 1505 1505 1504 1503 1500 1500 1510 1515 1506 1497 1495 1501 1503 1505 1508 1508 1509 1509 1510 1510 1509 1508 1507 1506 1505 1503 1501 1499 1497 1495 1493 1492 1490 1489 1488 1488 1487 1486 1485 1484 1484 1483
1509 1509 1505 1507 1506 1503 1501 1500 1501 1505 1501 1503 1497 1499 1503 1507 1508 1508 1508 1509 1509 1509 1508 1507 1506 1504 1503 1502 1500 1498 1495 1493 1491 1490 1488 1487 1486 1486 1485 1484 1483 1483 1482 1481
1511 1514 1506 1506 1504 1504 1503 1502 1501 1503 1512 1509 1500 1500 1505 1507 1508 1508 1509 1509 1509 1509 1507 1506 1505 1503 1502 1500 1499 1496 1494 1492 1490 1489 1487 1486 1485 1484 1483 1482 1482 1481 1480 1479
1513 1514 1509 1505 1507 1506 1505 1505 1504 1502 1504 1511 1510 1509 1507 1509 1509 1509 1509 1509 1509 1508 1507 1505 1504 1502 1500 1498 1497 1495 1492 1491 1489 1487 1486 1485 1484 1483 1482 1481 1480 1479 1478 1477
1516 1513 1511 1508 1507 1508 1507 1508 1508 1512 1509 1506 1509 1513 1510 1511 1511 1511 1510 1510 1509 1507 1506 1504 1502 1501 1499 1497 1495 1493 1491 1489 1487 1486 1485 1483 1482 1481 1480 1480 1479 1478 1476 1475
1518 1517 1516 1510 1512 1509 1509 1508 1508 1508 1508 1507 1509 1514 1510 1512 1512 1512 1511 1510 1508 1507 1505 1503 1502 1500 1498 1497 1494 1492 1490 1488 1487 1485 1484 1482 1481 1480 1479 1478 1477 1476 1475 1473
1521 1517 1518 1520 1516 1512 1513 1510 1508 1508 1508 1509 1510 1511 1509 1511 1511 1511 1511 1510 1508 1507 1505 1503 1501 1500 1498 1496 1494 1492 1490 1488 1486 1484 1483 1481 1479 1478 1478 1477 1475 1474 1473 1471
1520 1517 1516 1514 1513 1513 1513 1513 1510 1511 1511 1513 1513 1512 1511 1512 1513 1512 1511 1510 1508 1506 1504 1503 1501 1499 1497 1495 1493 1491 1489 1487 1485 1483 1482 1480 1479 1478 1476 1475 1474 1473 1471 1470
1520 1518 1516 1516 1512 1512 1514 1512 1511 1512 1511 1511 1511 1512 1513 1514 1513 1512 1511 1509 1508 1506 1505 1503 1501 1499 1497 1494 1492 1490 1488 1486 1484 1483 1481 1479 1478 1477 1475 1474 1473 1472 1470 1469
1518 1519 1517 1512 1509 1511 1515 1513 1513 1513 1512 1513 1513 1514 1514 1513 1513 1512 1511 1509 1508 1507 1505 1503 1500 1499 1496 1494 1492 1490 1487 1486 1484 1482 1481 1479 1478 1476 1475 1474 1473 1471 1470 1468
1520 1518 1514 1510 1513 1520 1516 1512 1513 1513 1513 1513 1514 1514 1514 1514 1514 1512 1511 1509 1508 1506 1504 1502 1500 1498 1495 1493 1491 1489 1487 1485 1483 1482 1480 1479 1477 1476 1475 1473 1472 1471 1469 1467
1521 1519 1514 1512 1511 1511 1513 1513 1513 1514 1513 1514 1514 1515 1514 1513 1511 1509 1510 1508 1507 1505 1504 1502 1499 1497 1495 1492 1490 1488 1486 1485 1483 1481 1480 1478 1477 1475 1474 1473 1471 1470 1468 1467
1520 1519 1515 1513 1516 1517 1514 1514 1515 1514 1512 1514 1515 1515 1514 1512 1507 1507 1508 1507 1506 1504 1502 1500 1498 1496 1494 1491 1489 1487 1486 1484 1482 1481 1479 1478 1476 1475 1474 1473 1472 1470 1469 1467
1518 1517 1515 1513 1514 1510 1513 1515 1515 1517 1517 1517 1516 1515 1514 1512 1511 1510 1508 1506 1505 1503 1501 1499 1497 1495 1493 1491 1489 1487 1485 1484 1482 1480 1479 1477 1476 1475 1474 1473 1472 1470 1469 1468
1514 1514 1514 1513 1514 1515 1516 1515 1516 1518 1517 1516 1515 1514 1513 1511 1510 1508 1506 1505 1503 1501 1499 1497 1495 1493 1491 1490 1488 1486 1485 1483 1482 1480 1479 1477 1476 1476 1475 1473 1472 1471 1469 1468
1514 1514 1510 1512 1514 1515 1516 1517 1518 1517 1517 1515 1514 1512 1511 1509 1508 1506 1505 1503 1501 1500 1498 1496 1494 1492 1490 1489 1487 1486 1484 1483 1481 1480 1479 1478 1477 1476 1475 1474 1472 1471 1469 1468
1513 1516 1515 1514 1512 1514 1515 1516 1516 1516 1515 1514 1512 1510 1509 1507 1505 1504 1502 1501 1499 1498 1496 1494 1492 1491 1489 1487 1486 1485 1484 1482 1481 1480 1479 1478 1477 1476 1475 1474 1472 1471 1469 1468
1513 1515 1513 1513 1513 1513 1513 1514 1514 1513 1512 1511 1509 1508 1506 1504 1503 1502 1500 1499 1497 1495 1494 1493 1491 1489 1488 1487 1485 1484 1483 1482 1481 1480 1479 1478 1477 1476 1474 1473 1472 1471 1469 1467
1512 1513 1512 1510 1512 1513 1512 1512 1512 1511 1509 1508 1506 1505 1503 1502 1500 1499 1498 1496 1495 1493 1492 1491 1489 1488 1487 1486 1484 1483 1482 1481 1480 1479 1478 1478 1477 1476 1474 1473 1471 1469 1468 1466